Location: Newark
(32.9900°N, 111.5400°W)
Time: 05:25:29
(UTC+00:00)

N. Korean satellite - Pass Details

Date: 26 November 2019
Orbit: 456 x 506 km, 97.2° (Epoch: 07 December)

Event Time Altitude Azimuth Distance (km) Brightness Sun altitude
Rises 01:06:51 0° 188° (S) 2,561 10.6 -9.9°
Reaches altitude 10° 01:09:04 10° 199° (SSW) 1,691 9.9 -10.3°
Maximum altitude 01:12:19 30° 263° (W) 910 8.8 -11.0°
Drops below altitude 10° 01:15:38 10° 326° (NW) 1,718 9.6 -11.7°
Sets 01:17:54 0° 337° (NNW) 2,610 10.4 -12.1°
